Flag for Iran Weather past 2 weeks in Mashhad, Iran

Now
84 °F

Sunny.


Feels Like: 81 °F
Forecast: 56 / 84 °F
Wind: 16 mph from Southeast

Location: Mashhad Airport

Current Time: May 26, 2015 at 7:04:59 PM

Latest Report: May 26, 2015 at 6:30 PM


Visibility: 10 mi

Pressure: 29.95 "Hg

Humidity: 6%

Dew point: 12 °F

Location of MashhadLocation

Historic Weather in Mashhad — Graph

°F

Mashhad temperature yesterday

Maximum temperature yesterday: 82 °F (at 3:00 PM)
Minimum temperature yesterday: 54 °F (at 5:30 AM)
Average temperature yesterday: 68 °F

Past Weeks' High & Low Weather Summary

 TemperatureHumidityPressure
High95 °F (May 15, 4:00 PM)94% (May 12, 4:30 AM)30.18 "Hg (May 12, 4:30 AM)
Low54 °F (May 25, 5:30 AM)5% (May 26, 1:55 PM)29.80 "Hg (May 15, 4:00 PM)
Average73 °F35%30.05 "Hg
* Reported May 11 5:30 PM — May 26 6:00 PM, Mashhad, Weather by CustomWeather, © 2015

Note: Actual official high and low records may vary slightly from our data, if they occured in-between our weather recording intervals... More about our weather records

Advertising

Mashhad weather history for previous 24 hours

 ConditionsComfort  
Time TempWeatherWind HumidityBarometerVisibility
6:00 PM
Tue, May 26
84 °FPassing clouds.16 mph7%29.95 "HgN/A
5:00 PM88 °FPassing clouds.16 mph6%29.95 "HgN/A
4:00 PM90 °FPassing clouds.9 mph5%29.95 "HgN/A
3:30 PM90 °FPassing clouds.9 mph5%29.95 "HgN/A
3:00 PM90 °FPassing clouds.9 mph5%29.95 "HgN/A
2:30 PM88 °FPassing clouds.12 mph5%29.95 "HgN/A
1:55 PM86 °FPassing clouds.9 mph5%29.98 "HgN/A
11:55 AM81 °FSunny.7 mph9%30.01 "Hg10 mi
11:30 AM81 °FSunny.7 mph11%30.01 "Hg10 mi
11:00 AM79 °FSunny.7 mph12%30.01 "Hg10 mi
10:30 AM77 °FSunny.5 mph14%30.04 "Hg10 mi
10:00 AM77 °FSunny.7 mph13%30.04 "Hg10 mi
9:20 AM73 °FSunny.5 mph15%30.04 "Hg10 mi
9:00 AM73 °FSunny.5 mph16%30.04 "Hg10 mi
8:30 AM72 °FSunny.5 mph20%30.04 "Hg10 mi
8:00 AM70 °FSunny.5 mph23%30.04 "Hg10 mi
7:30 AM68 °FSunny.7 mph24%30.01 "Hg10 mi
7:00 AM64 °FSunny.7 mph26%30.01 "Hg10 mi
6:30 AM61 °FClear.7 mph29%30.01 "Hg10 mi
6:00 AM59 °FClear.7 mph29%30.01 "Hg10 mi
5:30 AM57 °FClear.5 mph31%30.01 "Hg10 mi
5:00 AM59 °FClear.5 mph27%30.01 "Hg10 mi
4:30 AM59 °FClear.9 mph27%29.98 "Hg10 mi
4:00 AM61 °FClear.5 mph23%29.98 "Hg10 mi
3:30 AM61 °FClear.7 mph23%30.01 "Hg10 mi
3:00 AM63 °FClear.7 mph22%30.01 "Hg10 mi
2:30 AM63 °FClear.7 mph20%30.01 "Hg10 mi
2:00 AM63 °FClear.7 mph20%30.01 "Hg10 mi
1:30 AM64 °FClear.5 mph18%30.04 "Hg10 mi
1:00 AM64 °FClear.7 mph16%30.04 "Hg10 mi
12:30 AM66 °FClear.5 mph15%30.04 "Hg10 mi
12:00 AM64 °FClear.5 mph15%30.04 "Hg10 mi
11:30 PM
Mon, May 25
66 °FClear.7 mph14%30.07 "Hg10 mi
11:00 PM68 °FClear.5 mph13%30.07 "Hg10 mi
10:30 PM68 °FClear.7 mph12%30.07 "Hg10 mi
10:00 PM68 °FClear.7 mph12%30.07 "Hg10 mi
9:30 PM70 °FClear.7 mph10%30.07 "Hg10 mi
9:00 PM70 °FSunny.9 mph11%30.04 "Hg10 mi
8:30 PM70 °FSunny.9 mph12%30.04 "Hg10 mi
7:55 PM72 °FSunny.12 mph10%30.04 "Hg10 mi
7:30 PM73 °FSunny.16 mph10%30.04 "Hg10 mi
7:00 PM77 °FSunny.12 mph8%30.01 "Hg10 mi
Weather by CustomWeather, © 2015

See weather overviewHow to use our weather pages